Location: Newark
(44.6768°N, 22.5302°E)
Time: 05:45:45
(UTC+00:00)

Tiangong - Visible Passes

Search period start: 28 January 2022 00:00
Search period end: 07 February 2022 00:00
Orbit: 381 x 387 km, 41.5° (Epoch: 27 January)

Date Brightness Start Highest point End Pass type
(mag) Time Alt. Az. Time Alt. Az. Time Alt. Az.
28 Jan 2.8 17:25:56 10° SW 17:28:04 25° S 17:28:04 25° S visible
29 Jan 3.0 16:26:39 10° SSW 16:29:04 20° SSE 16:31:12 11° ESE visible
29 Jan 3.8 18:02:27 10° WSW 18:03:25 18° WSW 18:03:25 18° WSW visible
30 Jan 2.1 17:02:46 10° SW 17:05:44 36° SSE 17:06:30 31° SE visible
31 Jan 2.6 16:03:13 10° SW 16:06:00 28° SSE 16:08:46 10° ESE visible
31 Jan 2.4 17:39:26 10° WSW 17:41:44 37° SW 17:41:44 37° SW visible
01 Feb 1.9 16:39:38 10° WSW 16:42:41 43° S 16:44:45 18° ESE visible
01 Feb 4.2 18:16:16 10° W 18:16:57 15° WSW 18:16:57 15° WSW visible
02 Feb 1.7 17:16:23 10° WSW 17:19:26 45° S 17:19:57 40° SSE visible
03 Feb 1.9 16:16:29 10° WSW 16:19:33 46° S 16:22:37 10° ESE visible
03 Feb 3.1 17:53:14 10° W 17:55:10 25° SW 17:55:10 25° SW visible
04 Feb 2.2 16:53:13 10° W 16:56:13 38° S 16:58:13 17° SE visible
05 Feb 3.1 17:30:13 10° WSW 17:32:45 22° SSW 17:33:32 20° S visible
06 Feb 2.8 16:30:01 10° W 16:32:52 30° SSW 16:35:42 10° SE visible
